Weather reports worldwide

Advertisment
Springfield, vt, United States of America (2074072): temperature & dewpoint: 12.07.2019 01:00:00 - 18.07.2019 01:00:00 (EDT)Springfield, vt, United States of America (2074072): wind speed: 12.07.2019 01:00:00 - 18.07.2019 01:00:00 (EDT)Springfield, vt, United States of America (2074072): wind direction: 12.07.2019 01:00:00 - 18.07.2019 01:00:00 (EDT)Springfield, vt, United States of America (2074072): reduced air pressure: 12.07.2019 01:00:00 - 18.07.2019 01:00:00 (EDT)Springfield, vt, United States of America (2074072): visibility: 12.07.2019 01:00:00 - 18.07.2019 01:00:00 (EDT)Springfield, vt, United States of America (2074072): precipitation: 12.07.2019 01:00:00 - 18.07.2019 01:00:00 (EDT)
Date & Time tt [°C] td [°C] ff [km/h] ff [kn] dd ppp [hPa] vv [km] rr [mm]
18.07.2019 01:00:00 20,0 18,9 0 0 N 1014,0 16 -
18.07.2019 00:00:00 19,4 18,9 5 3 W 1013,6 16 -
17.07.2019 23:00:00 21,1 20,0 0 0 N 1013,8 16 -
17.07.2019 22:00:00 22,2 20,6 0 0 N 1013,3 16 -
17.07.2019 21:00:00 22,8 20,6 0 0 N 1012,9 16 -
17.07.2019 20:00:00 23,9 21,1 5 3 NNW 1012,0 16 -
17.07.2019 19:00:00 25,6 20,0 5 3 N 1012,1 16 -
17.07.2019 18:00:00 25,6 21,1 0 0 N 1011,6 16 -
17.07.2019 17:00:00 24,4 21,1 5 3 SW 1011,3 16 0,0
17.07.2019 16:00:00 23,9 21,7 9 5 S 1011,6 16 0,5
17.07.2019 15:00:00 24,4 21,7 8 4 W 1012,5 13 0,5
17.07.2019 14:00:00 27,2 19,4 11 6 WSW 1012,6 16 -
17.07.2019 13:00:00 27,8 20,0 13 7 S 1012,2 16 -
17.07.2019 12:00:00 26,7 20,0 13 7 S 1012,5 16 -
17.07.2019 11:00:00 25,6 20,0 8 4 S 1013,2 16 -
17.07.2019 10:00:00 25,0 20,0 5 3 SSE 1013,5 16 -
17.07.2019 09:00:00 23,9 19,4 8 4 SW 1013,6 16 0,0
17.07.2019 08:00:00 22,2 20,0 0 0 N 1013,6 16 0,0
17.07.2019 07:00:00 21,7 19,4 0 0 N 1013,3 16 0,0
17.07.2019 06:00:00 22,2 18,9 0 0 N 1013,3 16 -
17.07.2019 05:00:00 22,2 18,9 0 0 N 1013,1 16 -
17.07.2019 04:00:00 20,6 18,9 0 0 N 1013,0 16 -
17.07.2019 03:00:00 21,1 18,9 0 0 N 1013,2 16 -
17.07.2019 02:00:00 20,0 18,9 0 0 N 1013,6 16 -
17.07.2019 01:00:00 20,6 18,9 0 0 N 1013,8 16 -
17.07.2019 00:00:00 20,0 18,9 0 0 N 1013,8 16 -
16.07.2019 23:00:00 21,1 19,4 0 0 N 1014,0 16 -
16.07.2019 22:00:00 22,2 20,0 0 0 N 1014,4 16 -
16.07.2019 21:00:00 23,3 20,0 0 0 N 1014,1 15 -
16.07.2019 20:00:00 26,1 20,0 0 0 N 1014,0 16 -
16.07.2019 19:00:00 28,3 20,0 0 0 N 1013,9 16 -
16.07.2019 18:00:00 28,3 19,4 0 0 N 1013,8 16 -
16.07.2019 17:00:00 26,7 18,3 5 3 SE 1014,8 16 -
16.07.2019 16:00:00 25,0 18,9 5 3 NNE 1015,9 16 -
16.07.2019 15:00:00 23,3 17,8 0 0 N 1016,5 16 0,0
16.07.2019 14:00:00 25,6 13,9 5 3 WSW 1016,4 16 -
16.07.2019 13:00:00 26,7 14,4 9 5 SSE 1016,9 16 -
16.07.2019 12:00:00 26,1 14,4 8 4 - 1017,1 16 -
16.07.2019 11:00:00 25,0 15,6 11 6 SE 1017,4 16 -
16.07.2019 10:00:00 21,1 15,0 5 3 - 1018,3 16 -
16.07.2019 09:00:00 18,3 13,9 0 0 N 1018,8 16 -
16.07.2019 08:00:00 14,4 13,3 0 0 N 1019,3 16 -
16.07.2019 07:00:00 12,8 12,2 0 0 N 1019,3 1,6 -
16.07.2019 06:00:00 12,2 11,7 0 0 N 1019,2 0,4 -
16.07.2019 05:00:00 11,7 11,1 0 0 N 1018,6 3,2 -
16.07.2019 04:00:00 12,2 11,7 0 0 N 1018,5 16 -
16.07.2019 03:00:00 12,2 11,7 0 0 N 1018,6 16 -
16.07.2019 02:00:00 13,9 12,8 0 0 N 1018,5 16 -
16.07.2019 01:00:00 13,9 13,3 0 0 N 1018,4 16 -
16.07.2019 00:00:00 15,0 13,3 0 0 N 1018,6 16 -
15.07.2019 23:00:00 16,1 13,9 0 0 N 1018,0 16 -
15.07.2019 22:00:00 17,8 14,4 0 0 N 1018,0 16 -
15.07.2019 21:00:00 19,4 14,4 0 0 N 1017,4 16 -
15.07.2019 20:00:00 22,2 13,9 8 4 WNW 1016,7 16 -
15.07.2019 19:00:00 24,4 12,2 5 3 WNW 1016,7 16 -
15.07.2019 18:00:00 26,1 11,1 15 8 NW 1016,6 16 -
15.07.2019 17:00:00 26,1 11,1 16 9 W 1016,5 16 -
15.07.2019 16:00:00 26,7 10,6 11 6 - 1016,4 16 -
15.07.2019 15:00:00 26,7 10,6 18 10 W 1016,6 16 -
15.07.2019 14:00:00 26,7 11,7 18 10 NW 1016,9 16 -
15.07.2019 13:00:00 25,0 12,2 16 9 W 1017,2 16 -
15.07.2019 12:00:00 25,0 12,2 16 9 WSW 1017,6 16 -
15.07.2019 11:00:00 22,8 10,6 15 8 WNW 1017,7 16 -
15.07.2019 10:00:00 23,3 11,7 9 5 NNE 1017,7 16 -
15.07.2019 09:00:00 21,1 11,1 11 6 WNW 1017,4 16 -
15.07.2019 08:00:00 18,9 13,3 5 3 N 1017,7 16 -
15.07.2019 07:00:00 14,4 12,2 0 0 N 1017,6 16 -
15.07.2019 06:00:00 12,8 11,7 0 0 N 1017,5 16 -
15.07.2019 05:00:00 13,3 12,2 0 0 N 1017,1 16 -
15.07.2019 04:00:00 13,9 12,8 5 3 ENE 1016,9 16 -
15.07.2019 03:00:00 14,4 12,8 0 0 N 1017,0 16 -
15.07.2019 02:00:00 15,6 13,3 5 3 W 1016,9 16 -
15.07.2019 01:00:00 16,7 13,3 0 0 N 1016,5 16 -
15.07.2019 00:00:00 17,8 13,9 0 0 N 1016,0 16 -
14.07.2019 23:00:00 18,3 13,9 0 0 N 1015,7 16 -
14.07.2019 22:00:00 19,4 13,9 0 0 N 1015,7 16 -
14.07.2019 21:00:00 22,2 13,3 8 4 WNW 1014,6 16 -
14.07.2019 20:00:00 23,9 13,3 8 4 WNW 1013,8 16 -
14.07.2019 19:00:00 25,6 13,3 15 8 WNW 1013,1 16 -
14.07.2019 18:00:00 26,7 13,3 9 5 - 1012,8 16 -
14.07.2019 17:00:00 27,8 13,3 15 8 NW 1012,3 16 -
14.07.2019 16:00:00 27,8 13,3 13 7 WNW 1012,0 16 -
14.07.2019 15:00:00 28,3 13,3 15 8 WNW 1011,8 16 -
14.07.2019 14:00:00 26,1 13,9 8 4 WNW 1012,4 16 -
14.07.2019 13:00:00 26,1 14,4 13 7 NW 1012,5 16 0,0
14.07.2019 12:00:00 27,2 15,0 13 7 WNW 1012,5 16 -
14.07.2019 11:00:00 26,7 15,0 13 7 W 1012,1 16 -
14.07.2019 10:00:00 26,1 15,6 13 7 W 1012,0 16 -
14.07.2019 09:00:00 24,4 16,7 15 8 W 1012,2 16 -
14.07.2019 08:00:00 21,1 16,1 0 0 N 1012,3 16 -
14.07.2019 07:00:00 17,8 15,6 0 0 N 1011,8 16 -
14.07.2019 06:00:00 15,6 14,4 0 0 N 1011,8 16 -
14.07.2019 05:00:00 16,1 14,4 0 0 N 1011,5 16 -
14.07.2019 04:00:00 16,7 15,0 0 0 N 1011,0 16 -
14.07.2019 03:00:00 18,9 15,6 0 0 N 1010,8 16 -
14.07.2019 02:00:00 19,4 15,6 0 0 N 1011,3 16 -
14.07.2019 01:00:00 22,2 14,4 0 0 N 1011,5 16 -
14.07.2019 00:00:00 20,0 16,1 5 3 - 1012,1 16 -
13.07.2019 23:00:00 20,6 16,1 0 0 N 1011,7 16 -
13.07.2019 22:00:00 22,2 15,6 0 0 N 1011,8 16 -
13.07.2019 21:00:00 22,8 16,1 0 0 N 1011,3 16 -
13.07.2019 20:00:00 26,1 13,3 8 4 S 1011,0 16 -
13.07.2019 19:00:00 27,8 16,1 11 6 WSW 1010,7 16 -
13.07.2019 18:00:00 27,8 15,6 9 5 SW 1010,7 16 -
13.07.2019 17:00:00 28,3 15,0 11 6 W 1011,0 16 -
13.07.2019 16:00:00 28,9 15,6 16 9 W 1011,2 16 -
13.07.2019 15:00:00 27,8 14,4 0 0 N 1011,4 16 -
13.07.2019 14:00:00 27,8 13,9 9 5 - 1011,8 16 -
13.07.2019 13:00:00 28,3 13,3 15 8 WNW 1012,0 16 -
13.07.2019 12:00:00 27,2 13,9 15 8 W 1012,4 16 -
13.07.2019 11:00:00 26,1 14,4 11 6 - 1012,7 16 -
13.07.2019 10:00:00 25,0 15,6 13 7 W 1012,6 16 -
13.07.2019 09:00:00 23,3 15,6 11 6 WNW 1012,8 16 -
13.07.2019 08:00:00 21,7 17,2 5 3 NE 1012,5 16 -
13.07.2019 07:00:00 19,4 17,2 0 0 N 1012,1 16 -
13.07.2019 06:00:00 17,8 16,7 0 0 N 1011,6 16 -
13.07.2019 05:00:00 18,3 16,7 0 0 N 1011,3 16 -
13.07.2019 04:00:00 17,8 16,7 5 3 ENE 1010,5 16 -
13.07.2019 03:00:00 17,8 16,7 0 0 N 1010,5 16 -
13.07.2019 02:00:00 18,9 17,2 0 0 N 1010,4 16 -
13.07.2019 01:00:00 18,9 17,2 0 0 N 1010,4 16 -
13.07.2019 00:00:00 18,9 17,2 0 0 N 1010,2 16 -
12.07.2019 23:00:00 20,0 17,2 0 0 N 1010,0 16 -
12.07.2019 22:00:00 21,7 17,2 0 0 N 1009,3 16 -
12.07.2019 21:00:00 22,8 17,2 8 4 WNW 1008,4 16 -
12.07.2019 20:00:00 25,0 16,7 5 3 - 1007,7 16 -
12.07.2019 19:00:00 26,7 17,2 13 7 NW 1006,5 16 -
12.07.2019 18:00:00 27,2 16,7 18 10 WNW 1006,1 16 -
12.07.2019 17:00:00 27,8 16,7 21 11 WNW 1005,7 16 -
12.07.2019 16:00:00 28,3 17,8 26 14 W 1005,4 16 -
12.07.2019 15:00:00 29,4 16,1 15 8 W 1005,2 16 -
12.07.2019 14:00:00 29,4 17,2 13 7 NW 1005,4 16 -
12.07.2019 13:00:00 28,3 18,3 11 6 NW 1005,8 16 -
12.07.2019 12:00:00 25,0 19,4 5 3 - 1006,3 16 0,0
12.07.2019 11:00:00 23,9 20,6 5 3 W 1006,2 16 0,0
12.07.2019 10:00:00 22,2 20,0 5 3 SSW 1006,3 16 -
12.07.2019 09:00:00 21,7 19,4 0 0 N 1006,5 16 -
12.07.2019 08:00:00 20,0 18,9 0 0 N 1006,5 16 -
12.07.2019 07:00:00 19,4 18,3 5 3 W 1006,6 16 -
12.07.2019 06:00:00 18,9 18,3 0 0 N 1006,3 13 -
12.07.2019 05:00:00 18,9 17,8 5 3 ENE 1006,1 15 -
12.07.2019 04:00:00 18,9 18,3 0 0 N 1006,7 10 -
12.07.2019 03:00:00 18,9 18,3 0 0 N 1007,3 10 0,0
12.07.2019 02:00:00 19,4 18,3 0 0 N 1008,0 13 -
12.07.2019 01:00:00 19,4 18,9 0 0 N 1008,6 6 -

tt = temperature
td = dewpoint
ff = wind speed
dd = wind direction
ppp = reduced air pressure
vv = visibility
rr = precipitation

Next stations